Time,TemperatureF,DewpointF,PressureIn,WindDirection,WindDirectionDegrees,WindSpeedMPH,WindSpeedGustMPH,Humidity,HourlyPrecipIn,Conditions,Clouds,dailyrainin,SoftwareType,DateUTC
2013-06-04 00:01:00,78.5,60.5,28.44,ESE,112,4.9,7.2,54,0.00,,,0.00,Rainwise IP-100,2013-06-04 05:01:00,
2013-06-04 00:06:00,78.3,61.0,28.44,SSE,157,3.3,7.0,55,0.00,,,0.00,Rainwise IP-100,2013-06-04 05:06:00,
2013-06-04 00:11:00,78.3,61.0,28.44,SE,135,4.4,6.8,55,0.00,,,0.00,Rainwise IP-100,2013-06-04 05:11:00,
2013-06-04 00:16:00,78.1,60.5,28.44,ESE,112,3.5,6.1,55,0.00,,,0.00,Rainwise IP-100,2013-06-04 05:16:00,
2013-06-04 00:21:00,77.9,60.5,28.44,SSE,157,3.7,7.2,55,0.00,,,0.00,Rainwise IP-100,2013-06-04 05:21:00,
2013-06-04 00:26:00,77.8,61.0,28.44,SSE,157,1.4,5.4,56,0.00,,,0.00,Rainwise IP-100,2013-06-04 05:26:00,
2013-06-04 00:31:00,77.5,61.0,28.44,SE,135,2.6,4.9,56,0.00,,,0.00,Rainwise IP-100,2013-06-04 05:31:00,
2013-06-04 00:36:00,77.3,60.5,28.44,ESE,112,4.7,4.7,56,0.00,,,0.00,Rainwise IP-100,2013-06-04 05:36:00,
2013-06-04 00:41:00,77.1,61.0,28.44,ESE,112,2.3,4.9,57,0.00,,,0.00,Rainwise IP-100,2013-06-04 05:41:00,
2013-06-04 00:46:00,76.9,61.0,28.43,SE,135,1.4,5.4,57,0.00,,,0.00,Rainwise IP-100,2013-06-04 05:46:00,
2013-06-04 00:51:00,76.8,61.0,28.44,ESE,112,1.9,4.9,58,0.00,,,0.00,Rainwise IP-100,2013-06-04 05:51:00,
2013-06-04 00:56:00,76.7,61.0,28.43,ESE,112,1.6,5.1,58,0.00,,,0.00,Rainwise IP-100,2013-06-04 05:56:00,
2013-06-04 01:01:00,76.6,60.5,28.43,SE,135,3.7,5.1,58,0.00,,,0.00,Rainwise IP-100,2013-06-04 06:01:00,
2013-06-04 01:06:00,76.5,61.0,28.44,ESE,112,3.7,4.2,59,0.00,,,0.00,Rainwise IP-100,2013-06-04 06:06:00,
2013-06-04 01:11:00,76.3,61.0,28.44,SE,135,0.0,4.0,59,0.00,,,0.00,Rainwise IP-100,2013-06-04 06:11:00,
2013-06-04 01:16:00,76.1,60.5,28.44,SSE,157,1.2,3.5,59,0.00,,,0.00,Rainwise IP-100,2013-06-04 06:16:00,
2013-06-04 01:21:00,75.8,61.0,28.44,ESE,112,3.3,3.5,60,0.00,,,0.00,Rainwise IP-100,2013-06-04 06:21:00,
2013-06-04 01:26:00,75.6,60.5,28.44,ESE,112,1.4,3.7,60,0.00,,,0.00,Rainwise IP-100,2013-06-04 06:26:00,
2013-06-04 01:31:00,75.4,60.5,28.43,ESE,112,0.0,2.6,60,0.00,,,0.00,Rainwise IP-100,2013-06-04 06:31:00,
2013-06-04 01:36:00,75.2,61.0,28.44,SE,135,3.0,3.0,61,0.00,,,0.00,Rainwise IP-100,2013-06-04 06:36:00,
2013-06-04 01:41:00,75.0,61.0,28.44,ESE,112,1.4,4.0,61,0.00,,,0.00,Rainwise IP-100,2013-06-04 06:41:00,
2013-06-04 01:46:00,74.7,60.5,28.44,ESE,112,1.6,3.7,61,0.00,,,0.00,Rainwise IP-100,2013-06-04 06:46:00,
2013-06-04 01:51:00,74.5,61.0,28.43,ESE,112,2.1,4.2,62,0.00,,,0.00,Rainwise IP-100,2013-06-04 06:51:00,
2013-06-04 01:56:00,74.3,60.5,28.43,East,90,2.8,3.5,62,0.00,,,0.00,Rainwise IP-100,2013-06-04 06:56:00,
2013-06-04 02:01:00,74.3,61.0,28.43,ESE,112,1.6,4.4,63,0.00,,,0.00,Rainwise IP-100,2013-06-04 07:01:00,
2013-06-04 02:06:00,74.0,61.0,28.44,ESE,112,2.6,4.0,63,0.00,,,0.00,Rainwise IP-100,2013-06-04 07:06:00,
2013-06-04 02:11:00,73.8,60.5,28.43,ESE,112,2.3,5.6,63,0.00,,,0.00,Rainwise IP-100,2013-06-04 07:11:00,
2013-06-04 02:16:00,73.5,60.5,28.44,ESE,112,1.9,4.7,63,0.00,,,0.00,Rainwise IP-100,2013-06-04 07:16:00,
2013-06-04 02:21:00,73.4,60.0,28.43,ESE,112,3.5,5.6,63,0.00,,,0.00,Rainwise IP-100,2013-06-04 07:21:00,
2013-06-04 02:26:00,73.2,60.0,28.43,East,90,1.9,4.0,63,0.00,,,0.00,Rainwise IP-100,2013-06-04 07:26:00,
2013-06-04 02:31:00,73.0,60.0,28.43,ESE,112,2.1,4.9,64,0.00,,,0.00,Rainwise IP-100,2013-06-04 07:31:00,
2013-06-04 02:36:00,72.9,60.0,28.43,ESE,112,1.4,4.4,64,0.00,,,0.00,Rainwise IP-100,2013-06-04 07:36:00,
2013-06-04 02:41:00,72.6,60.0,28.43,SE,135,3.5,3.7,64,0.00,,,0.00,Rainwise IP-100,2013-06-04 07:41:00,
2013-06-04 02:46:00,72.5,60.0,28.43,ESE,112,3.3,4.7,64,0.00,,,0.00,Rainwise IP-100,2013-06-04 07:46:00,
2013-06-04 02:51:00,72.5,60.0,28.43,SE,135,1.4,7.7,64,0.00,,,0.00,Rainwise IP-100,2013-06-04 07:51:00,
2013-06-04 02:56:00,72.4,59.5,28.43,ESE,112,3.0,5.1,64,0.00,,,0.00,Rainwise IP-100,2013-06-04 07:56:00,
2013-06-04 03:01:00,72.2,59.5,28.42,ESE,112,1.9,4.9,64,0.00,,,0.00,Rainwise IP-100,2013-06-04 08:01:00,
2013-06-04 03:06:00,72.1,59.5,28.42,ESE,112,2.3,5.8,65,0.00,,,0.00,Rainwise IP-100,2013-06-04 08:06:00,
2013-06-04 03:11:00,72.0,59.5,28.42,ESE,112,0.0,4.9,65,0.00,,,0.00,Rainwise IP-100,2013-06-04 08:11:00,
2013-06-04 03:16:00,71.8,59.5,28.42,ESE,112,1.2,4.7,66,0.00,,,0.00,Rainwise IP-100,2013-06-04 08:16:00,
2013-06-04 03:21:00,71.7,59.5,28.42,ESE,112,2.3,4.2,66,0.00,,,0.00,Rainwise IP-100,2013-06-04 08:21:00,
2013-06-04 03:26:00,71.6,60.0,28.42,SSE,157,1.9,3.7,67,0.00,,,0.00,Rainwise IP-100,2013-06-04 08:26:00,
2013-06-04 03:31:00,71.5,60.0,28.42,SSE,157,4.4,7.0,67,0.00,,,0.00,Rainwise IP-100,2013-06-04 08:31:00,
2013-06-04 03:36:00,71.5,60.0,28.42,SE,135,2.1,5.8,67,0.00,,,0.00,Rainwise IP-100,2013-06-04 08:36:00,
2013-06-04 03:41:00,71.3,60.0,28.42,ESE,112,2.3,4.9,67,0.00,,,0.00,Rainwise IP-100,2013-06-04 08:41:00,
2013-06-04 03:46:00,71.1,60.0,28.42,SE,135,2.1,4.4,68,0.00,,,0.00,Rainwise IP-100,2013-06-04 08:46:00,
2013-06-04 03:51:00,71.0,60.0,28.42,SE,135,1.6,4.7,68,0.00,,,0.00,Rainwise IP-100,2013-06-04 08:51:00,
2013-06-04 03:56:00,71.0,60.0,28.43,ESE,112,2.1,4.2,69,0.00,,,0.00,Rainwise IP-100,2013-06-04 08:56:00,
2013-06-04 04:01:00,70.9,60.0,28.42,SSE,157,2.8,5.1,69,0.00,,,0.00,Rainwise IP-100,2013-06-04 09:01:00,
2013-06-04 04:06:00,70.7,60.0,28.42,ESE,112,3.7,4.9,69,0.00,,,0.00,Rainwise IP-100,2013-06-04 09:06:00,
2013-06-04 04:11:00,70.6,60.0,28.42,SE,135,2.6,5.1,69,0.00,,,0.00,Rainwise IP-100,2013-06-04 09:11:00,
2013-06-04 04:16:00,70.4,60.5,28.42,SE,135,3.3,4.7,70,0.00,,,0.00,Rainwise IP-100,2013-06-04 09:16:00,
2013-06-04 04:21:00,70.2,60.0,28.42,ESE,112,3.0,4.2,70,0.00,,,0.00,Rainwise IP-100,2013-06-04 09:21:00,
2013-06-04 04:26:00,69.9,60.5,28.42,SE,135,3.3,5.8,71,0.00,,,0.00,Rainwise IP-100,2013-06-04 09:26:00,
2013-06-04 04:31:00,69.7,60.0,28.42,SE,135,3.3,4.7,71,0.00,,,0.00,Rainwise IP-100,2013-06-04 09:31:00,
2013-06-04 04:36:00,69.7,60.5,28.41,SE,135,2.6,4.4,72,0.00,,,0.00,Rainwise IP-100,2013-06-04 09:36:00,
2013-06-04 04:41:00,69.8,60.5,28.42,SE,135,1.9,7.5,72,0.00,,,0.00,Rainwise IP-100,2013-06-04 09:41:00,
2013-06-04 04:46:00,69.7,60.5,28.41,ESE,112,3.5,5.8,72,0.00,,,0.00,Rainwise IP-100,2013-06-04 09:46:00,
2013-06-04 04:51:00,69.7,60.5,28.42,ESE,112,2.8,6.1,72,0.00,,,0.00,Rainwise IP-100,2013-06-04 09:51:00,
2013-06-04 04:56:00,69.5,60.5,28.42,SE,135,3.3,5.1,72,0.00,,,0.00,Rainwise IP-100,2013-06-04 09:56:00,
2013-06-04 05:01:00,69.2,60.5,28.41,SSE,157,1.9,4.7,73,0.00,,,0.00,Rainwise IP-100,2013-06-04 10:01:00,
2013-06-04 05:06:00,69.0,60.0,28.42,SE,135,2.3,3.5,73,0.00,,,0.00,Rainwise IP-100,2013-06-04 10:06:00,
2013-06-04 05:11:00,68.9,60.5,28.42,ESE,112,3.5,6.3,74,0.00,,,0.00,Rainwise IP-100,2013-06-04 10:11:00,
2013-06-04 05:16:00,68.9,60.5,28.41,SSE,157,3.5,6.5,75,0.00,,,0.00,Rainwise IP-100,2013-06-04 10:16:00,
2013-06-04 05:21:00,68.9,60.5,28.41,SE,135,3.3,4.7,75,0.00,,,0.00,Rainwise IP-100,2013-06-04 10:21:00,
2013-06-04 05:26:00,68.8,60.5,28.41,SSE,157,3.7,5.6,75,0.00,,,0.00,Rainwise IP-100,2013-06-04 10:26:00,
2013-06-04 05:31:00,68.8,61.0,28.41,ESE,112,3.3,6.3,76,0.00,,,0.00,Rainwise IP-100,2013-06-04 10:31:00,
2013-06-04 05:36:00,68.9,61.0,28.41,ESE,112,3.5,7.5,76,0.00,,,0.00,Rainwise IP-100,2013-06-04 10:36:00,
2013-06-04 05:41:00,68.9,61.0,28.41,ESE,112,3.0,6.8,76,0.00,,,0.00,Rainwise IP-100,2013-06-04 10:41:00,
2013-06-04 05:46:00,68.8,61.5,28.41,ESE,112,2.8,5.8,77,0.00,,,0.00,Rainwise IP-100,2013-06-04 10:46:00,
2013-06-04 05:51:00,68.7,61.0,28.41,ESE,112,5.4,5.4,77,0.00,,,0.00,Rainwise IP-100,2013-06-04 10:51:00,
2013-06-04 05:56:00,68.8,61.5,28.40,SE,135,2.1,7.2,77,0.00,,,0.00,Rainwise IP-100,2013-06-04 10:56:00,
2013-06-04 06:01:00,68.8,61.5,28.41,SSE,157,4.0,7.0,77,0.00,,,0.00,Rainwise IP-100,2013-06-04 11:01:00,
2013-06-04 06:06:00,68.8,61.5,28.41,ESE,112,3.0,6.1,78,0.00,,,0.00,Rainwise IP-100,2013-06-04 11:06:00,
2013-06-04 06:11:00,68.6,61.5,28.41,ESE,112,3.5,5.1,78,0.00,,,0.00,Rainwise IP-100,2013-06-04 11:11:00,
2013-06-04 06:16:00,68.5,61.5,28.41,SE,135,4.0,6.8,79,0.00,,,0.00,Rainwise IP-100,2013-06-04 11:16:00,
2013-06-04 06:21:00,68.5,61.5,28.41,SE,135,3.7,6.8,79,0.00,,,0.00,Rainwise IP-100,2013-06-04 11:21:00,
2013-06-04 06:26:00,68.3,62.0,28.41,SSE,157,4.0,5.6,80,0.00,,,0.00,Rainwise IP-100,2013-06-04 11:26:00,
2013-06-04 06:31:00,68.2,61.5,28.41,SSE,157,3.3,5.4,80,0.00,,,0.00,Rainwise IP-100,2013-06-04 11:31:00,
2013-06-04 06:36:00,68.1,62.0,28.41,SE,135,5.4,6.3,81,0.00,,,0.00,Rainwise IP-100,2013-06-04 11:36:00,
2013-06-04 06:41:00,68.0,62.0,28.41,SE,135,2.1,7.2,81,0.00,,,0.00,Rainwise IP-100,2013-06-04 11:41:00,
2013-06-04 06:46:00,68.0,62.5,28.41,SE,135,2.8,7.0,82,0.00,,,0.00,Rainwise IP-100,2013-06-04 11:46:00,
2013-06-04 06:51:00,68.1,62.5,28.41,SE,135,5.1,6.8,82,0.00,,,0.00,Rainwise IP-100,2013-06-04 11:51:00,
2013-06-04 06:56:00,68.2,62.5,28.41,SSE,157,5.4,7.7,83,0.00,,,0.00,Rainwise IP-100,2013-06-04 11:56:00,
2013-06-04 07:01:00,68.4,63.0,28.42,SSE,157,3.3,7.0,83,0.00,,,0.00,Rainwise IP-100,2013-06-04 12:01:00,
2013-06-04 07:06:00,68.7,63.0,28.42,SSE,157,4.9,8.9,83,0.00,,,0.00,Rainwise IP-100,2013-06-04 12:06:00,
2013-06-04 07:11:00,69.2,64.0,28.42,SE,135,6.5,9.8,84,0.00,,,0.00,Rainwise IP-100,2013-06-04 12:11:00,
2013-06-04 07:16:00,69.7,64.5,28.42,SSE,157,6.3,8.9,84,0.00,,,0.00,Rainwise IP-100,2013-06-04 12:16:00,
2013-06-04 07:21:00,70.1,65.5,28.42,SSE,157,4.0,10.5,85,0.00,,,0.00,Rainwise IP-100,2013-06-04 12:21:00,
2013-06-04 07:26:00,70.5,66.0,28.42,SSE,157,6.3,10.0,85,0.00,,,0.00,Rainwise IP-100,2013-06-04 12:26:00,
2013-06-04 07:31:00,70.8,66.0,28.42,South,180,6.3,10.3,84,0.00,,,0.00,Rainwise IP-100,2013-06-04 12:31:00,
2013-06-04 07:36:00,71.0,66.0,28.43,South,180,7.2,9.8,84,0.00,,,0.00,Rainwise IP-100,2013-06-04 12:36:00,
2013-06-04 07:41:00,71.3,66.3,28.43,SSE,157,6.1,10.5,84,0.00,,,0.00,Rainwise IP-100,2013-06-04 12:41:00,
2013-06-04 07:46:00,71.5,66.7,28.43,SSE,157,3.5,10.3,84,0.00,,,0.00,Rainwise IP-100,2013-06-04 12:46:00,
2013-06-04 07:51:00,71.7,66.7,28.43,SSE,157,5.8,12.4,84,0.00,,,0.00,Rainwise IP-100,2013-06-04 12:51:00,
2013-06-04 07:56:00,71.9,66.7,28.43,SSE,157,5.4,10.5,84,0.00,,,0.00,Rainwise IP-100,2013-06-04 12:56:00,
2013-06-04 08:01:00,72.1,66.7,28.42,SSE,157,6.8,15.6,84,0.00,,,0.00,Rainwise IP-100,2013-06-04 13:01:00,
2013-06-04 08:06:00,72.3,66.7,28.44,SSE,157,10.0,13.5,83,0.00,,,0.00,Rainwise IP-100,2013-06-04 13:06:00,
2013-06-04 08:11:00,72.6,67.0,28.43,SSE,157,6.8,13.5,83,0.00,,,0.00,Rainwise IP-100,2013-06-04 13:11:00,
2013-06-04 08:16:00,72.9,67.5,28.43,ESE,112,5.1,11.9,83,0.00,,,0.00,Rainwise IP-100,2013-06-04 13:16:00,
2013-06-04 08:21:00,73.2,67.5,28.44,SSE,157,9.3,14.0,82,0.00,,,0.00,Rainwise IP-100,2013-06-04 13:21:00,
2013-06-04 08:26:00,73.4,67.5,28.44,South,180,5.4,12.8,82,0.00,,,0.00,Rainwise IP-100,2013-06-04 13:26:00,
2013-06-04 08:31:00,73.7,67.5,28.44,SSE,157,4.9,12.1,81,0.00,,,0.00,Rainwise IP-100,2013-06-04 13:31:00,
2013-06-04 08:36:00,74.0,67.5,28.44,SSE,157,5.8,11.9,80,0.00,,,0.00,Rainwise IP-100,2013-06-04 13:36:00,
2013-06-04 08:41:00,74.2,68.0,28.45,SSE,157,4.7,13.3,80,0.00,,,0.00,Rainwise IP-100,2013-06-04 13:41:00,
2013-06-04 08:46:00,74.5,68.0,28.45,SSE,157,4.7,11.7,79,0.00,,,0.00,Rainwise IP-100,2013-06-04 13:46:00,
2013-06-04 08:51:00,74.9,68.5,28.45,SSE,157,7.9,14.5,79,0.00,,,0.00,Rainwise IP-100,2013-06-04 13:51:00,
2013-06-04 08:56:00,75.3,68.0,28.45,SSE,157,2.8,14.0,78,0.00,,,0.00,Rainwise IP-100,2013-06-04 13:56:00,
2013-06-04 09:01:00,75.7,68.0,28.45,SSW,202,7.9,13.1,77,0.00,,,0.00,Rainwise IP-100,2013-06-04 14:01:00,
2013-06-04 09:06:00,76.0,67.5,28.45,SSE,157,8.4,13.1,76,0.00,,,0.00,Rainwise IP-100,2013-06-04 14:06:00,
2013-06-04 09:11:00,76.1,67.5,28.45,SSW,202,1.9,15.2,75,0.00,,,0.00,Rainwise IP-100,2013-06-04 14:11:00,
2013-06-04 09:16:00,76.5,67.5,28.45,SSW,202,3.5,15.2,74,0.00,,,0.00,Rainwise IP-100,2013-06-04 14:16:00,
2013-06-04 09:21:00,77.1,68.0,28.45,South,180,8.9,13.8,73,0.00,,,0.00,Rainwise IP-100,2013-06-04 14:21:00,
2013-06-04 09:26:00,77.2,67.0,28.45,SSE,157,11.4,16.8,71,0.00,,,0.00,Rainwise IP-100,2013-06-04 14:26:00,
2013-06-04 09:31:00,77.3,67.0,28.44,SSE,157,7.0,12.4,70,0.00,,,0.00,Rainwise IP-100,2013-06-04 14:31:00,
2013-06-04 09:36:00,77.6,66.7,28.45,SE,135,9.8,14.2,69,0.00,,,0.00,Rainwise IP-100,2013-06-04 14:36:00,
2013-06-04 09:41:00,77.9,66.7,28.45,South,180,4.0,17.5,68,0.00,,,0.00,Rainwise IP-100,2013-06-04 14:41:00,
2013-06-04 09:46:00,78.2,66.3,28.44,SSE,157,5.6,14.0,66,0.00,,,0.00,Rainwise IP-100,2013-06-04 14:46:00,
2013-06-04 09:51:00,78.5,66.3,28.44,SE,135,5.8,11.0,66,0.00,,,0.00,Rainwise IP-100,2013-06-04 14:51:00,
2013-06-04 09:56:00,78.8,66.3,28.45,SSW,202,8.6,16.3,66,0.00,,,0.00,Rainwise IP-100,2013-06-04 14:56:00,
2013-06-04 10:01:00,79.0,66.3,28.45,SE,135,4.9,15.4,65,0.00,,,0.00,Rainwise IP-100,2013-06-04 15:01:00,
2013-06-04 10:06:00,78.9,66.0,28.46,ESE,112,6.5,14.0,64,0.00,,,0.00,Rainwise IP-100,2013-06-04 15:06:00,
2013-06-04 10:11:00,79.2,66.0,28.45,South,180,7.0,11.7,63,0.00,,,0.00,Rainwise IP-100,2013-06-04 15:11:00,
2013-06-04 10:16:00,79.7,66.3,28.45,SSE,157,4.0,13.3,64,0.00,,,0.00,Rainwise IP-100,2013-06-04 15:16:00,
2013-06-04 10:21:00,79.8,66.3,28.45,South,180,4.7,13.5,64,0.00,,,0.00,Rainwise IP-100,2013-06-04 15:21:00,
2013-06-04 10:26:00,79.8,66.3,28.45,ESE,112,10.5,15.2,64,0.00,,,0.00,Rainwise IP-100,2013-06-04 15:26:00,
2013-06-04 10:31:00,79.6,66.0,28.45,SSE,157,9.6,15.2,63,0.00,,,0.00,Rainwise IP-100,2013-06-04 15:31:00,
2013-06-04 10:36:00,79.6,65.5,28.45,SSE,157,9.8,16.3,62,0.00,,,0.00,Rainwise IP-100,2013-06-04 15:36:00,
2013-06-04 10:41:00,80.0,65.5,28.45,ESE,112,9.6,14.9,61,0.00,,,0.00,Rainwise IP-100,2013-06-04 15:41:00,
2013-06-04 10:46:00,80.3,65.0,28.46,SE,135,9.8,15.9,60,0.00,,,0.00,Rainwise IP-100,2013-06-04 15:46:00,
2013-06-04 10:51:00,80.6,65.5,28.46,SE,135,7.5,10.7,60,0.00,,,0.00,Rainwise IP-100,2013-06-04 15:51:00,
2013-06-04 10:56:00,81.1,65.5,28.47,South,180,4.0,11.9,59,0.00,,,0.00,Rainwise IP-100,2013-06-04 15:56:00,
2013-06-04 11:01:00,81.4,65.5,28.47,East,90,8.4,12.4,58,0.00,,,0.00,Rainwise IP-100,2013-06-04 16:01:00,
2013-06-04 11:06:00,81.7,65.0,28.48,SE,135,4.7,11.4,57,0.00,,,0.00,Rainwise IP-100,2013-06-04 16:06:00,
2013-06-04 11:11:00,82.2,64.5,28.48,SSE,157,5.4,8.6,55,0.00,,,0.00,Rainwise IP-100,2013-06-04 16:11:00,
2013-06-04 11:16:00,82.6,64.0,28.48,ESE,112,4.9,10.0,54,0.00,,,0.00,Rainwise IP-100,2013-06-04 16:16:00,
2013-06-04 11:21:00,82.9,64.0,28.48,South,180,7.0,12.8,53,0.00,,,0.00,Rainwise IP-100,2013-06-04 16:21:00,
2013-06-04 11:26:00,83.3,64.5,28.48,SE,135,7.5,13.5,53,0.00,,,0.00,Rainwise IP-100,2013-06-04 16:26:00,
2013-06-04 11:31:00,83.3,64.0,28.47,SE,135,4.2,11.4,52,0.00,,,0.00,Rainwise IP-100,2013-06-04 16:31:00,
2013-06-04 11:36:00,83.6,63.5,28.48,South,180,6.8,12.6,51,0.00,,,0.00,Rainwise IP-100,2013-06-04 16:36:00,
2013-06-04 11:41:00,84.1,64.0,28.48,ESE,112,2.1,12.1,51,0.00,,,0.00,Rainwise IP-100,2013-06-04 16:41:00,
2013-06-04 11:46:00,84.3,64.0,28.48,ENE,67,4.9,15.2,50,0.00,,,0.00,Rainwise IP-100,2013-06-04 16:46:00,
2013-06-04 11:51:00,84.7,63.5,28.47,SE,135,8.6,13.5,49,0.00,,,0.00,Rainwise IP-100,2013-06-04 16:51:00,
2013-06-04 11:56:00,84.9,63.5,28.46,South,180,7.5,12.8,49,0.00,,,0.00,Rainwise IP-100,2013-06-04 16:56:00,
2013-06-04 12:01:00,85.0,63.5,28.47,SSE,157,9.3,10.5,49,0.00,,,0.00,Rainwise IP-100,2013-06-04 17:01:00,
2013-06-04 12:06:00,85.3,64.0,28.47,SSW,202,5.1,10.3,49,0.00,,,0.00,Rainwise IP-100,2013-06-04 17:06:00,
2013-06-04 12:11:00,85.5,63.5,28.47,SE,135,7.2,14.7,48,0.00,,,0.00,Rainwise IP-100,2013-06-04 17:11:00,
2013-06-04 12:16:00,85.7,64.0,28.46,SSE,157,5.1,9.3,48,0.00,,,0.00,Rainwise IP-100,2013-06-04 17:16:00,
2013-06-04 12:21:00,86.1,64.0,28.46,South,180,9.6,11.7,48,0.00,,,0.00,Rainwise IP-100,2013-06-04 17:21:00,
2013-06-04 12:26:00,86.2,63.5,28.47,ESE,112,7.9,13.5,47,0.00,,,0.00,Rainwise IP-100,2013-06-04 17:26:00,
2013-06-04 12:31:00,86.2,63.5,28.46,SSE,157,9.8,10.3,47,0.00,,,0.00,Rainwise IP-100,2013-06-04 17:31:00,
2013-06-04 12:36:00,86.5,63.0,28.46,South,180,11.7,13.1,46,0.00,,,0.00,Rainwise IP-100,2013-06-04 17:36:00,
2013-06-04 12:41:00,87.0,63.5,28.45,South,180,5.6,13.5,46,0.00,,,0.00,Rainwise IP-100,2013-06-04 17:41:00,
2013-06-04 12:46:00,87.1,63.5,28.45,SE,135,7.2,11.9,45,0.00,,,0.00,Rainwise IP-100,2013-06-04 17:46:00,
2013-06-04 12:51:00,87.1,63.5,28.45,SE,135,4.2,13.8,45,0.00,,,0.00,Rainwise IP-100,2013-06-04 17:51:00,
2013-06-04 12:56:00,87.1,63.5,28.45,SSE,157,4.2,13.5,45,0.00,,,0.00,Rainwise IP-100,2013-06-04 17:56:00,
2013-06-04 13:01:00,87.4,63.5,28.45,SSE,157,5.8,10.3,45,0.00,,,0.00,Rainwise IP-100,2013-06-04 18:01:00,
2013-06-04 13:06:00,87.9,64.0,28.44,SE,135,8.4,15.4,45,0.00,,,0.00,Rainwise IP-100,2013-06-04 18:06:00,
2013-06-04 13:11:00,87.9,63.5,28.44,SSE,157,5.8,16.1,44,0.00,,,0.00,Rainwise IP-100,2013-06-04 18:11:00,
2013-06-04 13:16:00,88.1,63.5,28.44,East,90,8.9,13.8,44,0.00,,,0.00,Rainwise IP-100,2013-06-04 18:16:00,
2013-06-04 13:21:00,88.6,63.0,28.44,South,180,8.2,15.4,43,0.00,,,0.00,Rainwise IP-100,2013-06-04 18:21:00,
2013-06-04 13:26:00,88.8,63.5,28.44,South,180,9.3,14.0,43,0.00,,,0.00,Rainwise IP-100,2013-06-04 18:26:00,
2013-06-04 13:31:00,88.5,62.5,28.43,SSE,157,9.8,17.3,42,0.00,,,0.00,Rainwise IP-100,2013-06-04 18:31:00,
2013-06-04 13:36:00,88.6,62.0,28.43,SSW,202,4.7,12.8,41,0.00,,,0.00,Rainwise IP-100,2013-06-04 18:36:00,
2013-06-04 13:41:00,89.0,62.5,28.42,SE,135,7.0,13.5,41,0.00,,,0.00,Rainwise IP-100,2013-06-04 18:41:00,
2013-06-04 13:46:00,89.4,62.5,28.43,SSE,157,6.3,14.9,41,0.00,,,0.00,Rainwise IP-100,2013-06-04 18:46:00,
2013-06-04 13:51:00,89.5,62.5,28.42,ESE,112,2.3,13.3,41,0.00,,,0.00,Rainwise IP-100,2013-06-04 18:51:00,
2013-06-04 13:56:00,89.7,63.0,28.42,SSE,157,9.6,17.5,41,0.00,,,0.00,Rainwise IP-100,2013-06-04 18:56:00,
2013-06-04 14:01:00,89.8,62.0,28.42,SE,135,12.1,15.9,40,0.00,,,0.00,Rainwise IP-100,2013-06-04 19:01:00,
2013-06-04 14:06:00,89.8,62.0,28.42,SW,225,7.9,18.7,40,0.00,,,0.00,Rainwise IP-100,2013-06-04 19:06:00,
2013-06-04 14:11:00,90.0,62.5,28.41,SSE,157,9.8,14.0,40,0.00,,,0.00,Rainwise IP-100,2013-06-04 19:11:00,
2013-06-04 14:16:00,90.5,63.0,28.41,SE,135,9.8,11.7,40,0.00,,,0.00,Rainwise IP-100,2013-06-04 19:16:00,
2013-06-04 14:21:00,91.0,62.5,28.42,SSE,157,11.7,13.8,39,0.00,,,0.00,Rainwise IP-100,2013-06-04 19:21:00,
2013-06-04 14:26:00,90.9,62.0,28.41,SE,135,7.7,19.6,38,0.00,,,0.00,Rainwise IP-100,2013-06-04 19:26:00,
2013-06-04 14:31:00,91.1,62.0,28.40,South,180,9.6,17.5,38,0.00,,,0.00,Rainwise IP-100,2013-06-04 19:31:00,
2013-06-04 14:36:00,91.2,62.0,28.41,SSE,157,10.3,17.0,38,0.00,,,0.00,Rainwise IP-100,2013-06-04 19:36:00,
2013-06-04 14:41:00,91.2,62.0,28.41,SSE,157,7.9,15.2,38,0.00,,,0.00,Rainwise IP-100,2013-06-04 19:41:00,
2013-06-04 14:46:00,91.3,63.0,28.40,ESE,112,5.4,18.4,39,0.00,,,0.00,Rainwise IP-100,2013-06-04 19:46:00,
2013-06-04 14:51:00,91.4,63.0,28.40,SE,135,8.9,15.2,39,0.00,,,0.00,Rainwise IP-100,2013-06-04 19:51:00,
2013-06-04 14:56:00,91.4,63.0,28.40,ESE,112,4.7,16.8,39,0.00,,,0.00,Rainwise IP-100,2013-06-04 19:56:00,
2013-06-04 15:01:00,91.4,63.0,28.39,SE,135,8.2,16.8,39,0.00,,,0.00,Rainwise IP-100,2013-06-04 20:01:00,
2013-06-04 15:06:00,91.8,63.5,28.39,ESE,112,8.2,14.5,39,0.00,,,0.00,Rainwise IP-100,2013-06-04 20:06:00,
2013-06-04 15:11:00,92.0,63.5,28.39,SSE,157,9.3,15.4,39,0.00,,,0.00,Rainwise IP-100,2013-06-04 20:11:00,
2013-06-04 15:16:00,91.9,63.5,28.38,ESE,112,12.1,17.5,39,0.00,,,0.00,Rainwise IP-100,2013-06-04 20:16:00,
2013-06-04 15:21:00,92.1,63.0,28.38,SSW,202,5.8,17.7,38,0.00,,,0.00,Rainwise IP-100,2013-06-04 20:21:00,
2013-06-04 15:26:00,92.4,63.0,28.39,South,180,6.1,13.8,38,0.00,,,0.00,Rainwise IP-100,2013-06-04 20:26:00,
2013-06-04 15:31:00,92.6,64.0,28.38,ESE,112,4.9,14.2,39,0.00,,,0.00,Rainwise IP-100,2013-06-04 20:31:00,
2013-06-04 15:36:00,92.7,63.5,28.38,South,180,14.2,16.3,38,0.00,,,0.00,Rainwise IP-100,2013-06-04 20:36:00,
2013-06-04 15:41:00,92.7,62.5,28.38,SE,135,9.3,16.3,37,0.00,,,0.00,Rainwise IP-100,2013-06-04 20:41:00,
2013-06-04 15:46:00,92.7,62.5,28.38,South,180,11.4,17.3,37,0.00,,,0.00,Rainwise IP-100,2013-06-04 20:46:00,
2013-06-04 15:51:00,92.8,63.5,28.38,SSE,157,6.1,13.5,38,0.00,,,0.00,Rainwise IP-100,2013-06-04 20:51:00,
2013-06-04 15:56:00,93.1,63.0,28.38,SSE,157,6.8,16.6,37,0.00,,,0.00,Rainwise IP-100,2013-06-04 20:56:00,
2013-06-04 16:01:00,92.9,63.0,28.38,SE,135,7.5,17.0,37,0.00,,,0.00,Rainwise IP-100,2013-06-04 21:01:00,
2013-06-04 16:06:00,92.7,62.5,28.38,SSW,202,11.7,13.1,37,0.00,,,0.00,Rainwise IP-100,2013-06-04 21:06:00,
2013-06-04 16:11:00,93.0,63.0,28.37,SSE,157,9.6,14.9,37,0.00,,,0.00,Rainwise IP-100,2013-06-04 21:11:00,
2013-06-04 16:16:00,93.1,63.0,28.37,SE,135,8.6,19.4,37,0.00,,,0.00,Rainwise IP-100,2013-06-04 21:16:00,
2013-06-04 16:21:00,92.9,63.0,28.38,SSE,157,6.5,15.6,37,0.00,,,0.00,Rainwise IP-100,2013-06-04 21:21:00,
2013-06-04 16:26:00,92.8,62.5,28.37,SE,135,9.8,15.4,37,0.00,,,0.00,Rainwise IP-100,2013-06-04 21:26:00,
2013-06-04 16:31:00,92.8,62.5,28.37,SSE,157,8.6,12.8,37,0.00,,,0.00,Rainwise IP-100,2013-06-04 21:31:00,
2013-06-04 16:36:00,93.1,63.0,28.36,SSE,157,4.9,16.1,37,0.00,,,0.00,Rainwise IP-100,2013-06-04 21:36:00,
2013-06-04 16:42:00,93.3,63.0,28.37,South,180,9.6,14.7,37,0.00,,,0.00,Rainwise IP-100,2013-06-04 21:42:00,
2013-06-04 16:47:00,93.1,63.0,28.37,SSE,157,9.1,18.7,37,0.00,,,0.00,Rainwise IP-100,2013-06-04 21:47:00,
2013-06-04 16:52:00,92.7,62.5,28.36,ESE,112,10.0,16.6,37,0.00,,,0.00,Rainwise IP-100,2013-06-04 21:52:00,
2013-06-04 16:57:00,92.7,62.5,28.36,SSE,157,10.0,19.4,37,0.00,,,0.00,Rainwise IP-100,2013-06-04 21:57:00,
2013-06-04 17:02:00,92.8,62.5,28.36,SE,135,9.8,14.9,37,0.00,,,0.00,Rainwise IP-100,2013-06-04 22:02:00,
2013-06-04 17:07:00,92.9,63.0,28.36,SSE,157,7.5,14.7,37,0.00,,,0.00,Rainwise IP-100,2013-06-04 22:07:00,
2013-06-04 17:12:00,92.9,63.0,28.35,ESE,112,10.3,14.2,37,0.00,,,0.00,Rainwise IP-100,2013-06-04 22:12:00,
2013-06-04 17:17:00,92.7,62.5,28.35,SSE,157,6.3,18.4,37,0.00,,,0.00,Rainwise IP-100,2013-06-04 22:17:00,
2013-06-04 17:22:00,92.5,62.5,28.35,ESE,112,7.5,19.6,37,0.00,,,0.00,Rainwise IP-100,2013-06-04 22:22:00,
2013-06-04 17:27:00,92.6,62.5,28.34,SE,135,4.2,17.5,37,0.00,,,0.00,Rainwise IP-100,2013-06-04 22:27:00,
2013-06-04 17:32:00,92.8,62.5,28.35,SE,135,6.5,18.9,37,0.00,,,0.00,Rainwise IP-100,2013-06-04 22:32:00,
2013-06-04 17:37:00,92.7,62.5,28.34,SSW,202,3.3,18.7,37,0.00,,,0.00,Rainwise IP-100,2013-06-04 22:37:00,
2013-06-04 17:42:00,92.7,62.5,28.34,SSE,157,9.8,18.4,37,0.00,,,0.00,Rainwise IP-100,2013-06-04 22:42:00,
2013-06-04 17:47:00,92.7,62.5,28.34,ESE,112,9.3,18.0,37,0.00,,,0.00,Rainwise IP-100,2013-06-04 22:47:00,
2013-06-04 17:52:00,92.8,62.5,28.34,SSE,157,10.0,17.3,37,0.00,,,0.00,Rainwise IP-100,2013-06-04 22:52:00,
2013-06-04 17:57:00,92.7,62.5,28.34,SSE,157,9.8,15.4,37,0.00,,,0.00,Rainwise IP-100,2013-06-04 22:57:00,
2013-06-04 18:02:00,92.5,62.5,28.33,SE,135,13.1,19.1,37,0.00,,,0.00,Rainwise IP-100,2013-06-04 23:02:00,
2013-06-04 18:07:00,92.2,63.0,28.33,SSE,157,11.9,19.1,38,0.00,,,0.00,Rainwise IP-100,2013-06-04 23:07:00,
2013-06-04 18:12:00,92.1,63.0,28.33,ESE,112,5.6,19.6,38,0.00,,,0.00,Rainwise IP-100,2013-06-04 23:12:00,
2013-06-04 18:17:00,92.1,63.0,28.33,South,180,8.9,17.0,38,0.00,,,0.00,Rainwise IP-100,2013-06-04 23:17:00,
2013-06-04 18:22:00,92.0,62.5,28.33,ESE,112,17.7,18.4,38,0.00,,,0.00,Rainwise IP-100,2013-06-04 23:22:00,
2013-06-04 18:27:00,91.8,62.5,28.33,ESE,112,7.5,17.7,38,0.00,,,0.00,Rainwise IP-100,2013-06-04 23:27:00,
2013-06-04 18:32:00,91.7,62.5,28.33,ESE,112,7.9,19.4,38,0.00,,,0.00,Rainwise IP-100,2013-06-04 23:32:00,
2013-06-04 18:37:00,91.6,62.5,28.34,SSE,157,6.3,18.0,38,0.00,,,0.00,Rainwise IP-100,2013-06-04 23:37:00,
2013-06-04 18:42:00,91.5,62.5,28.33,South,180,7.2,19.4,38,0.00,,,0.00,Rainwise IP-100,2013-06-04 23:42:00,
2013-06-04 18:47:00,91.5,62.5,28.33,ESE,112,13.1,16.8,38,0.00,,,0.00,Rainwise IP-100,2013-06-04 23:47:00,
2013-06-04 18:52:00,91.4,62.5,28.33,SSE,157,12.6,14.2,38,0.00,,,0.00,Rainwise IP-100,2013-06-04 23:52:00,
2013-06-04 18:57:00,91.2,62.0,28.33,SSE,157,5.8,18.7,38,0.00,,,0.00,Rainwise IP-100,2013-06-04 23:57:00,
2013-06-04 19:02:00,91.1,62.0,28.34,SE,135,5.6,13.5,38,0.00,,,0.00,Rainwise IP-100,2013-06-05 00:02:00,
2013-06-04 19:07:00,91.0,62.5,28.33,ESE,112,8.2,16.1,39,0.00,,,0.00,Rainwise IP-100,2013-06-05 00:07:00,
2013-06-04 19:12:00,90.8,62.5,28.33,ESE,112,8.6,15.9,39,0.00,,,0.00,Rainwise IP-100,2013-06-05 00:12:00,
2013-06-04 19:17:00,90.5,62.5,28.33,SSE,157,4.7,14.2,39,0.00,,,0.00,Rainwise IP-100,2013-06-05 00:17:00,
2013-06-04 19:22:00,90.3,62.0,28.33,SE,135,7.2,15.4,39,0.00,,,0.00,Rainwise IP-100,2013-06-05 00:22:00,
2013-06-04 19:27:00,90.1,62.0,28.34,ESE,112,4.7,18.4,39,0.00,,,0.00,Rainwise IP-100,2013-06-05 00:27:00,
2013-06-04 19:32:00,89.9,61.5,28.33,ESE,112,6.5,18.0,39,0.00,,,0.00,Rainwise IP-100,2013-06-05 00:32:00,
2013-06-04 19:37:00,89.7,62.0,28.33,South,180,10.3,16.6,40,0.00,,,0.00,Rainwise IP-100,2013-06-05 00:37:00,
2013-06-04 19:42:00,89.5,62.0,28.34,SSE,157,6.5,17.7,40,0.00,,,0.00,Rainwise IP-100,2013-06-05 00:42:00,
2013-06-04 19:47:00,89.3,62.0,28.34,SSE,157,8.6,17.5,40,0.00,,,0.00,Rainwise IP-100,2013-06-05 00:47:00,
2013-06-04 19:52:00,89.0,61.5,28.34,SE,135,6.3,13.3,40,0.00,,,0.00,Rainwise IP-100,2013-06-05 00:52:00,
2013-06-04 19:57:00,88.7,62.0,28.35,SSE,157,9.6,15.4,41,0.00,,,0.00,Rainwise IP-100,2013-06-05 00:57:00,
2013-06-04 20:02:00,88.3,61.5,28.34,ESE,112,16.6,16.6,41,0.00,,,0.00,Rainwise IP-100,2013-06-05 01:02:00,
2013-06-04 20:07:00,88.1,62.0,28.35,SSE,157,9.8,17.0,42,0.00,,,0.00,Rainwise IP-100,2013-06-05 01:07:00,
2013-06-04 20:12:00,87.9,62.0,28.34,ESE,112,3.0,16.1,42,0.00,,,0.00,Rainwise IP-100,2013-06-05 01:12:00,
2013-06-04 20:17:00,87.5,61.5,28.34,SSE,157,5.8,12.8,42,0.00,,,0.00,Rainwise IP-100,2013-06-05 01:17:00,
2013-06-04 20:22:00,87.1,61.5,28.34,South,180,2.1,15.4,42,0.00,,,0.00,Rainwise IP-100,2013-06-05 01:22:00,
2013-06-04 20:27:00,86.9,61.0,28.35,SE,135,5.8,15.4,42,0.00,,,0.00,Rainwise IP-100,2013-06-05 01:27:00,
2013-06-04 20:32:00,86.7,61.5,28.35,SSE,157,8.2,14.5,43,0.00,,,0.00,Rainwise IP-100,2013-06-05 01:32:00,
2013-06-04 20:37:00,86.5,61.5,28.35,SSE,157,4.7,13.5,43,0.00,,,0.00,Rainwise IP-100,2013-06-05 01:37:00,
2013-06-04 20:42:00,86.2,61.0,28.35,ESE,112,6.1,14.0,43,0.00,,,0.00,Rainwise IP-100,2013-06-05 01:42:00,
2013-06-04 20:47:00,85.9,61.5,28.36,South,180,5.1,11.9,44,0.00,,,0.00,Rainwise IP-100,2013-06-05 01:47:00,
2013-06-04 20:52:00,85.7,61.5,28.35,SSE,157,9.3,14.5,44,0.00,,,0.00,Rainwise IP-100,2013-06-05 01:52:00,
2013-06-04 20:57:00,85.4,61.0,28.36,East,90,6.8,11.2,44,0.00,,,0.00,Rainwise IP-100,2013-06-05 01:57:00,
2013-06-04 21:02:00,85.1,60.5,28.36,ESE,112,7.7,12.4,44,0.00,,,0.00,Rainwise IP-100,2013-06-05 02:02:00,
2013-06-04 21:07:00,84.9,61.0,28.36,South,180,4.2,10.7,45,0.00,,,0.00,Rainwise IP-100,2013-06-05 02:07:00,
2013-06-04 21:12:00,84.7,61.0,28.36,SSE,157,8.2,11.2,45,0.00,,,0.00,Rainwise IP-100,2013-06-05 02:12:00,
2013-06-04 21:17:00,84.4,61.0,28.37,SE,135,3.7,8.9,45,0.00,,,0.00,Rainwise IP-100,2013-06-05 02:17:00,
2013-06-04 21:22:00,84.2,61.5,28.37,ESE,112,2.6,10.5,46,0.00,,,0.00,Rainwise IP-100,2013-06-05 02:22:00,
2013-06-04 21:27:00,84.1,61.0,28.37,SSE,157,4.9,8.4,46,0.00,,,0.00,Rainwise IP-100,2013-06-05 02:27:00,
2013-06-04 21:32:00,83.9,61.0,28.38,SSE,157,5.6,10.5,46,0.00,,,0.00,Rainwise IP-100,2013-06-05 02:32:00,
2013-06-04 21:37:00,83.7,61.0,28.38,SE,135,7.0,13.3,46,0.00,,,0.00,Rainwise IP-100,2013-06-05 02:37:00,
2013-06-04 21:42:00,83.5,61.5,28.38,ESE,112,1.9,9.1,47,0.00,,,0.00,Rainwise IP-100,2013-06-05 02:42:00,
2013-06-04 21:47:00,83.2,61.0,28.38,ESE,112,4.4,7.2,47,0.00,,,0.00,Rainwise IP-100,2013-06-05 02:47:00,
2013-06-04 21:52:00,83.0,61.0,28.38,SSW,202,1.9,12.8,47,0.00,,,0.00,Rainwise IP-100,2013-06-05 02:52:00,
2013-06-04 21:57:00,82.9,61.0,28.39,SSE,157,7.2,10.5,47,0.00,,,0.00,Rainwise IP-100,2013-06-05 02:57:00,
2013-06-04 22:02:00,82.7,60.5,28.38,SW,225,1.4,12.1,47,0.00,,,0.00,Rainwise IP-100,2013-06-05 03:02:00,
2013-06-04 22:07:00,82.6,61.0,28.39,SSE,157,1.9,11.0,48,0.00,,,0.00,Rainwise IP-100,2013-06-05 03:07:00,
2013-06-04 22:12:00,82.4,61.0,28.39,SE,135,3.0,9.1,48,0.00,,,0.00,Rainwise IP-100,2013-06-05 03:12:00,
2013-06-04 22:17:00,82.1,60.5,28.40,SSE,157,4.4,7.0,48,0.00,,,0.00,Rainwise IP-100,2013-06-05 03:17:00,
2013-06-04 22:22:00,81.8,60.5,28.40,ESE,112,6.3,9.3,49,0.00,,,0.00,Rainwise IP-100,2013-06-05 03:22:00,
2013-06-04 22:27:00,81.5,60.5,28.40,ESE,112,4.0,7.5,49,0.00,,,0.00,Rainwise IP-100,2013-06-05 03:27:00,
2013-06-04 22:32:00,81.5,61.5,28.41,ESE,112,4.7,9.3,50,0.00,,,0.00,Rainwise IP-100,2013-06-05 03:32:00,
2013-06-04 22:37:00,81.3,61.0,28.41,SSE,157,1.6,8.9,50,0.00,,,0.00,Rainwise IP-100,2013-06-05 03:37:00,
2013-06-04 22:42:00,81.0,61.0,28.41,SE,135,4.2,7.7,50,0.00,,,0.00,Rainwise IP-100,2013-06-05 03:42:00,
2013-06-04 22:47:00,80.8,61.0,28.42,East,90,4.9,7.5,51,0.00,,,0.00,Rainwise IP-100,2013-06-05 03:47:00,
2013-06-04 22:52:00,80.6,61.0,28.42,ESE,112,6.5,7.9,51,0.00,,,0.00,Rainwise IP-100,2013-06-05 03:52:00,
2013-06-04 22:57:00,80.5,61.5,28.42,ESE,112,5.8,8.2,52,0.00,,,0.00,Rainwise IP-100,2013-06-05 03:57:00,
2013-06-04 23:01:00,80.4,61.5,28.42,ESE,112,4.0,7.5,52,0.00,,,0.00,Rainwise IP-100,2013-06-05 04:01:00,
2013-06-04 23:06:00,80.2,61.5,28.43,SSE,157,4.9,6.3,53,0.00,,,0.00,Rainwise IP-100,2013-06-05 04:06:00,
2013-06-04 23:11:00,80.1,61.5,28.43,ESE,112,1.4,6.5,53,0.00,,,0.00,Rainwise IP-100,2013-06-05 04:11:00,
2013-06-04 23:16:00,80.0,61.5,28.43,East,90,2.8,7.0,53,0.00,,,0.00,Rainwise IP-100,2013-06-05 04:16:00,
2013-06-04 23:21:00,79.8,61.0,28.43,SE,135,3.0,7.2,53,0.00,,,0.00,Rainwise IP-100,2013-06-05 04:21:00,
2013-06-04 23:26:00,79.7,61.0,28.43,ESE,112,4.4,7.2,53,0.00,,,0.00,Rainwise IP-100,2013-06-05 04:26:00,
2013-06-04 23:31:00,79.5,61.5,28.43,SE,135,2.8,8.6,54,0.00,,,0.00,Rainwise IP-100,2013-06-05 04:31:00,
2013-06-04 23:36:00,79.4,61.5,28.44,ENE,67,2.1,5.4,54,0.00,,,0.00,Rainwise IP-100,2013-06-05 04:36:00,
2013-06-04 23:41:00,79.4,61.5,28.46,NNE,22,3.7,6.1,54,0.00,,,0.00,Rainwise IP-100,2013-06-05 04:41:00,
2013-06-04 23:46:00,79.1,61.0,28.47,NNE,22,3.5,6.1,54,0.00,,,0.00,Rainwise IP-100,2013-06-05 04:46:00,
2013-06-04 23:51:00,78.7,60.5,28.47,NE,45,3.3,5.8,54,0.00,,,0.00,Rainwise IP-100,2013-06-05 04:51:00,
2013-06-04 23:56:00,78.6,61.0,28.47,NE,45,4.4,7.7,55,0.00,,,0.00,Rainwise IP-100,2013-06-05 04:56:00,